Regional Weather Roundup
Issued by NWS State College, PA

Home | Current Version | Previous Version | Graphics & Text | Print | Product List | Glossary Off
Versions: 1 2 3 4 5 6 7 8 9 10 11 12 13 14 15 16 17 18 19 20 21 22 23 24 25 26 27 28 29 30 31 32 33 34 35 36 37 38 39 40 41 42 43 44 45 46 47 48 49 50

108
ASUS41 KCTP 192203
RWRCTP

REGIONAL WEATHER ROUNDUP
NATIONAL WEATHER SERVICE STATE COLLEGE PA
600 PM EDT THU OCT 19 2017

Note: "fair" indicates few or no clouds below 12,000 feet with no
significant weather and/or obstructions to visibility.

* = STATION THAT DOES NOT REPORT PRECIPITATION /E.G. RAIN...SNOW...ETC/
    THUNDER OR FOG.

PAZ002>004-007>009-013>016-020>023-029>032-192300-
WESTERN PENNSYLVANIA

CITY           SKY/WX    TMP DP  RH WIND       PRES   REMARKS
ERIE           CLOUDY    65  55  70 W9        30.09R
MEADVILLE      CLOUDY    66  49  54 SW8       30.11S
FRANKLIN*      CLOUDY    65  48  54 SW6       30.13R
NEW CASTLE     FAIR      70  49  47 SW9       30.14R
BEAVER COUNTY  CLEAR     68  48  49 SW7       30.14S
BUTLER*        CLEAR     68  48  48 SW8G18    30.14S
PITTSBURGH INT MOCLDY    69  46  43 SW9       30.14F
PITTSBURGH     CLOUDY    68  42  38 SW10      30.15S
INDIANA*       CLEAR     64  45  48 W10       30.17S
LATROBE        MOCLDY    66  46  48 SW8       30.16F
WASHINGTON CO* CLEAR     67  45  45 SW8       30.19S
$$

PAZ004>006-010>012-017>019-024>028-033>037-041-042-045-046-049>053-192300-
CENTRAL PENNSYLVANIA

CITY           SKY/WX    TMP DP  RH WIND       PRES   REMARKS
BRADFORD       CLEAR     64  45  49 SW8       30.11R
DUBOIS         CLEAR     62  43  49 SW10      30.12S
CLEARFIELD     CLEAR     66  42  41 SW12      30.13R
JOHNSTOWN      CLEAR     62  41  46 W13       30.16F
ALTOONA        CLEAR     67  39  35 W9        30.14F
STATE COLLEGE  NOT AVBL
WILLIAMSPORT   CLEAR     67  49  52 S3        30.05S
SELINSGROVE    CLEAR     68  50  52 S5        30.09F
FT INDIANTOWN  CLEAR     68  49  49 W5        30.10F
CAPITAL CITY   CLEAR     70  45  40 S3        30.10F
HARRISBURG     PTCLDY    64  56  75 SW3       30.10F HAZE
YORK           CLEAR     68  46  45 SW5       30.12F
$$

PAZ038>040-043-044-047-048-054-055-060>062-067>071-192300-
EASTERN PENNSYLVANIA

CITY           SKY/WX    TMP DP  RH WIND       PRES   REMARKS
SCRANTON       CLEAR     67  43  41 SW8       30.08S
MOUNT POCONO   CLEAR     62  44  51 W6        30.10S
ALLENTOWN      CLEAR     66  46  48 SW7       30.10S
QUAKERTOWN*    CLEAR     66  48  52 SW5       30.11S
READING        CLEAR     69  47  45 W7        30.10S
LANCASTER      CLEAR     69  46  43 SW8       30.11S
COATESVILLE    CLEAR     63  50  63 VRB5      30.14S
POTTSTOWN      CLEAR     66  47  50 S5        30.12F
BLUE BELL      CLEAR     63  43  48 SW6       30.13S
DOYLESTOWN     CLEAR     66  45  46 S8        30.09F
WILLOW GROVE   NOT AVBL
NORTH PHILA    CLEAR     68  46  45 SW8       30.12F
PHILADELPHIA   PTCLDY    69  43  38 SW10      30.12F
$$




USA.gov is the U.S. government's official web portal to all federal, state and local government web resources and services.